Regional Weather Roundup
Issued by NWS Charleston, SC

Current Version | Previous Version | Graphics & Text | Print | Product List | Glossary On
Versions: 1 2 3 4 5 6 7 8 9 10 11 12 13 14 15 16 17 18 19 20 21 22 23 24 25 26 27 28 29 30 31 32 33 34 35 36 37 38 39 40 41 42 43 44 45 46 47 48 49 50
000 ASUS42 KCHS 271627 RWRCHS REGIONAL WEATHER ROUNDUP NATIONAL WEATHER SERVICE CHARLESTON SC 1200 PM EDT MON MAR 27 2017 NOTE: "FAIR" INDICATES FEW OR NO CLOUDS BELOW 12,000 FEET WITH NO SIGNIFICANT WEATHER AND/OR OBSTRUCTIONS TO VISIBILITY. NOT ALL STATIONS ARE QUALITY CONTROLLED. USE DATA WITH CAUTION... ESPECIALLY DEWPOINT OBSERVATIONS. SCZ027-030-031-034>040-042>050-271700- ...SOUTHEAST SOUTH CAROLINA... CITY SKY/WX TMP DP RH WIND PRES REMARKS N CHARLESTON MOSUNNY 78 58 49 SW12 30.15F WATERFRONT PRK N/A 71 60 68 S5 30.14F JOHNS ISLAND FAIR 75 59 57 S12 30.15F PINOPOLIS N/A 72 61 68 SW6 30.08S MONCKS CORNER PTSUNNY 75 55 50 SW8 30.13F SUMMERVILLE FAIR 75 57 53 SW6 30.14F BEAUFORT MCAS MOSUNNY 76 63 64 SE8 30.14F BEAUFORT ARPT FAIR 73 61 64 S9 30.14F HILTON HEAD IS SUNNY 73 61 64 SE10 30.16F WALTERBORO MOSUNNY 77 59 53 S8 30.14F ALLENDALE CLOUDY 73 61 64 VRB5 30.13S ...SOUTHERN MIDLANDS AND PEE DEE... CITY SKY/WX TMP DP RH WIND PRES REMARKS GEORGETOWN CLOUDY 73 55 53 CALM 30.16F KINGSTREE FAIR 77 55 47 SW8 30.13F ORANGEBURG MOSUNNY 75 60 59 SW13 30.13F BARNWELL FAIR 75 63 64 SW7 30.14S AIKEN PTSUNNY 73 61 64 SW9 30.16F MANNING FAIR 73 59 60 SW8 30.13F COLUMBIA PTSUNNY 76 60 57 SW7 30.11F SUMTER MOSUNNY 77 60 55 SW13 30.10F FLORENCE CLOUDY 75 59 57 W12 30.14F MYRTLE BEACH PTSUNNY 73 57 56 S13 30.16F N MYRTLE BEACH SUNNY 73 56 54 S10 30.16S $$ GAZ063-065-086>088-099>101-113>116-118-119-134>141-150-271700- ...SOUTHEAST GEORGIA... CITY SKY/WX TMP DP RH WIND PRES REMARKS SAVANNAH ARPT MOSUNNY 79 58 48 VRB6 30.14F HUNTER AAF SUNNY 78 63 59 S6 30.12F FORT STEWART SUNNY 79 58 48 SW7 30.12F STATESBORO CLOUDY 78 62 58 W8 30.13F SYLVANIA CLOUDY N/A N/A N/A SW6 30.14F CLAXTON FAIR 78 78 100 S7 30.13F ...CSRA...CENTRAL AND FAR SOUTHEAST GEORGIA... CITY SKY/WX TMP DP RH WIND PRES REMARKS THOMSON CLOUDY 74 62 65 W8 30.16F AUGUSTA-BUSH PTSUNNY 76 63 64 SW6 30.12F AUGUSTA-DANIEL CLOUDY 74 60 61 S8 30.13F SWAINSBORO CLOUDY 73 61 64 SW3 30.14F VIDALIA PTSUNNY 77 61 57 SW8 30.14F EASTMAN CLOUDY 78 50 37 W6 30.16F HAZLEHURST FAIR 79 61 54 SW6 30.13F ALMA CLOUDY 77 61 57 S9 30.13F WAYCROSS SUNNY 81 64 56 W6 30.13F JESUP FAIR 79 57 47 NW6 30.13F BAXLEY PTSUNNY 77 64 65 SW3 30.13F BRUNSWICK MOSUNNY 79 63 57 SW7 30.15F SAINT SIMONS SUNNY 76 59 55 S8 30.15F $$ SCZ027-028-034-036>038-045-046-048>050-GAZ119-141-271700- ...LAKE AND SUPPLEMENTAL COASTAL OBSERVATIONS... STATION/POSITION TIME TEMP WIND PRES WAVE SWELL AIR SEA DIR/SP/G HT/PER HT/PER/DIR (UTC) (F) (DEG/KT/KT) (MB) (FT/S) (FT/S/D) WINYAH BAY 1545 71 140/ 8 1021.0S LAKE MURRAY 1530 71 170/ 2/ 4 1019.6F ACE BASIN NERRS 1545 75 150/ 2 1021.0S FORT PULASKI 1600 73 63 160/ 5/ 9 1021.2 SAPELO ISLAND 1600 77 170/ 7 1021.0 $$ ANZ835-935-AMZ111-154-330-350-352-354-370-450-454-472-271700- ...C-MAN AND BUOY OBSERVATIONS... STATION/POSITION TIME TEMP WIND PRES WAVE SWELL AIR SEA DIR/SP/G HT/PER HT/PER/DIR (UTC) (F) (DEG/KT/KT) (MB) (FT/S) (FT/S/D) BUOY 41004 1550 70 73 300/ 6/ 8 1021.3R 4/10 3/130/10 BUOY 41008 1550 65 64 150/ 2/ 4 1021.3R 3/10 3/110/10 FOLLY BEACH CMAN 1600 68 180/ 3/ 4 1022.0F CAPERS NEARSHORE 1508 65 180/ 4/ 6 1021.5R FRIPP NEARSHORE 1608 65 64 180/ 4/ 6 1021.1F STATION/POSITION TIME TEMP WIND PRES WAVE SWELL AIR SEA DIR/SP/G HT/PER HT/PER/DIR (UTC) (F) (DEG/KT/KT) (MB) (FT/S) (FT/S/D) 5E ST. MARYS GA 1600 68 N/A 3/10 2/110/11 FRYING PAN BUOY 1600 72 76 190/ 6/ 8 1021.5 BUOY 41025 1550 71 76 180/ 4/ 6 1021.7F 3/ 9 3/130/ 9 CAPE LOOKOUT NC 1600 72 300/ 4/ 6 1021.4F BUOY 41002 1550 69 72 80/ 14/ 16 1021.4F 6/10 5/120/10 BUOY 41010 NOT AVBL ST AUGUSTINE FL 1600 70 69 80/ 5/ 6 1022.0F $$

USA.gov is the U.S. government's official web portal to all federal, state and local government web resources and services.